NOZ421A EDDW-EKCH

Flight info

Callsign NOZ421A
Flight time 0h 44m
Altitude 35000
Route WSN1M WSN L23 HAM P605 GESKA Z711 MONAK
Aircraft B738/M-SDE2E3FGHIRWXY/LB1

Departure

Time 2026-04-21 18:49
Airport Bremen Airport (EDDW)

Arrival

Time 2026-04-21 19:33
Airport Copenhagen Kastrup Airport (EKCH)
Time Latitude Longitude Altitude Speed Heading
2026-04-21 18:17 53.05118 8.78306 18 ft 0 kts 229°
2026-04-21 18:37 53.05122 8.78314 18 ft 2 kts 229°
2026-04-21 18:37 53.05124 8.78318 18 ft 0 kts 229°
2026-04-21 18:41 53.05119 8.78308 18 ft 3 kts 230°
2026-04-21 18:42 53.05113 8.78266 18 ft 5 kts 277°
2026-04-21 18:42 53.05135 8.78214 18 ft 6 kts 316°
2026-04-21 18:42 53.05167 8.78166 18 ft 6 kts 319°
2026-04-21 18:42 53.05186 8.78117 18 ft 8 kts 285°
2026-04-21 18:43 53.05173 8.78029 20 ft 8 kts 242°
2026-04-21 18:43 53.05144 8.77945 18 ft 9 kts 234°
2026-04-21 18:43 53.05103 8.77867 18 ft 9 kts 224°
2026-04-21 18:43 53.05058 8.77786 18 ft 10 kts 227°
2026-04-21 18:44 53.05011 8.77702 18 ft 10 kts 226°
2026-04-21 18:44 53.04961 8.77616 18 ft 11 kts 226°
2026-04-21 18:44 53.04905 8.77532 18 ft 11 kts 214°
2026-04-21 18:44 53.04834 8.77478 18 ft 11 kts 198°
2026-04-21 18:45 53.04789 8.77460 19 ft 0 kts 189°
2026-04-21 18:46 53.04781 8.77457 18 ft 3 kts 189°
2026-04-21 18:46 53.04742 8.77454 19 ft 8 kts 178°
2026-04-21 18:46 53.04686 8.77485 19 ft 9 kts 149°
2026-04-21 18:47 53.04661 8.77576 19 ft 9 kts 95°
2026-04-21 18:47 53.04661 8.77579 19 ft 0 kts 95°
2026-04-21 18:48 53.04662 8.77656 19 ft 25 kts 87°
2026-04-21 18:48 53.04680 8.78330 19 ft 90 kts 87°
2026-04-21 18:48 53.04716 8.79684 20 ft 145 kts 87°
2026-04-21 18:48 53.04744 8.81592 362 ft 168 kts 88°
2026-04-21 18:49 53.04712 8.83509 1235 ft 167 kts 90°
2026-04-21 18:49 53.04656 8.85446 2110 ft 175 kts 91°
2026-04-21 18:49 53.04609 8.86824 2640 ft 179 kts 91°
2026-04-21 18:49 53.04561 8.89632 3752 ft 184 kts 90°
2026-04-21 18:50 53.04536 8.91770 4646 ft 186 kts 90°
2026-04-21 18:50 53.04511 8.93919 5542 ft 182 kts 88°
2026-04-21 18:50 53.04666 8.96047 6164 ft 192 kts 73°
2026-04-21 18:50 53.05354 8.97959 6707 ft 203 kts 42°
2026-04-21 18:51 53.06689 8.98962 7229 ft 218 kts 15°
2026-04-21 18:51 53.08246 8.99265 7831 ft 238 kts
2026-04-21 18:51 53.09964 8.99268 8441 ft 253 kts
2026-04-21 18:51 53.11772 8.99435 9130 ft 264 kts
2026-04-21 18:52 53.13594 8.99498 10182 ft 267 kts 359°
2026-04-21 18:52 53.15503 8.98784 10379 ft 290 kts 345°
2026-04-21 18:52 53.17481 8.97626 10311 ft 316 kts 345°
2026-04-21 18:52 53.19531 8.96379 11276 ft 313 kts 342°
2026-04-21 18:53 53.21584 8.94944 11689 ft 332 kts 341°
2026-04-21 18:53 53.23807 8.93470 12138 ft 347 kts 343°
2026-04-21 18:53 53.26078 8.92165 12823 ft 352 kts 346°
2026-04-21 18:53 53.28439 8.90926 13581 ft 357 kts 347°
2026-04-21 18:54 53.30870 8.90086 14269 ft 358 kts
2026-04-21 18:54 53.33307 8.90645 15019 ft 352 kts 21°
2026-04-21 18:54 53.35421 8.92612 15731 ft 348 kts 43°
2026-04-21 18:54 53.36913 8.95780 16441 ft 348 kts 64°
2026-04-21 18:55 53.37599 8.98212 16907 ft 350 kts 66°
2026-04-21 18:55 53.38878 9.03215 17811 ft 355 kts 68°
2026-04-21 18:55 53.39825 9.07050 18508 ft 358 kts 68°
2026-04-21 18:55 53.40804 9.10913 19121 ft 361 kts 68°
2026-04-21 18:56 53.41812 9.14779 19728 ft 363 kts 67°
2026-04-21 18:56 53.42833 9.18663 20335 ft 365 kts 67°
2026-04-21 18:56 53.43855 9.22581 20950 ft 367 kts 68°
2026-04-21 18:56 53.44872 9.26529 21540 ft 369 kts 68°
2026-04-21 18:57 53.45877 9.30450 22103 ft 371 kts 68°
2026-04-21 18:57 53.46911 9.34490 22711 ft 372 kts 68°
2026-04-21 18:57 53.47933 9.38483 23276 ft 374 kts 68°
2026-04-21 18:57 53.48824 9.41959 23749 ft 376 kts 68°
2026-04-21 18:58 53.49856 9.45987 24224 ft 377 kts 68°
2026-04-21 18:58 53.50897 9.50058 24650 ft 379 kts 68°
2026-04-21 18:58 53.51940 9.54143 25062 ft 381 kts 68°
2026-04-21 18:58 53.52987 9.58251 25496 ft 383 kts 68°
2026-04-21 18:59 53.54035 9.62375 25889 ft 385 kts 68°
2026-04-21 18:59 53.55088 9.66542 26276 ft 387 kts 68°
2026-04-21 18:59 53.56144 9.70732 26655 ft 389 kts 68°
2026-04-21 18:59 53.57191 9.74889 27009 ft 391 kts 68°
2026-04-21 19:00 53.58253 9.79112 27366 ft 393 kts 68°
2026-04-21 19:00 53.59319 9.83356 27715 ft 394 kts 68°
2026-04-21 19:00 53.60388 9.87621 28054 ft 396 kts 68°
2026-04-21 19:00 53.61462 9.91916 28349 ft 398 kts 68°
2026-04-21 19:01 53.62537 9.96222 28661 ft 400 kts 68°
2026-04-21 19:01 53.63617 10.00558 28984 ft 401 kts 68°
2026-04-21 19:01 53.64695 10.04895 29286 ft 403 kts 68°
2026-04-21 19:01 53.65779 10.09273 29576 ft 405 kts 68°
2026-04-21 19:02 53.66853 10.13612 29859 ft 406 kts 68°
2026-04-21 19:02 53.67981 10.17989 30152 ft 408 kts 64°
2026-04-21 19:02 53.69500 10.22008 30654 ft 406 kts 54°
2026-04-21 19:02 53.71378 10.25594 30980 ft 407 kts 50°
2026-04-21 19:03 53.73310 10.29105 31288 ft 407 kts 49°
2026-04-21 19:03 53.75254 10.32589 31585 ft 408 kts 49°
2026-04-21 19:03 53.77179 10.36033 31900 ft 407 kts 49°
2026-04-21 19:03 53.79113 10.39515 32364 ft 404 kts 49°
2026-04-21 19:04 53.81030 10.42994 32692 ft 403 kts 49°
2026-04-21 19:04 53.82938 10.46470 33004 ft 403 kts 49°
2026-04-21 19:04 53.84851 10.49954 33297 ft 403 kts 49°
2026-04-21 19:05 53.88707 10.56971 33390 ft 408 kts 49°
2026-04-21 19:05 53.92548 10.63987 33396 ft 406 kts 49°
2026-04-21 19:06 53.96386 10.70994 33395 ft 404 kts 48°
2026-04-21 19:06 54.00222 10.77941 33385 ft 403 kts 48°
2026-04-21 19:07 54.04052 10.84920 33386 ft 403 kts 49°
2026-04-21 19:07 54.05972 10.88434 33164 ft 406 kts 49°
2026-04-21 19:07 54.07884 10.91938 32894 ft 399 kts 49°
2026-04-21 19:07 54.09761 10.95377 32624 ft 394 kts 49°
2026-04-21 19:08 54.11624 10.98792 32362 ft 393 kts 49°
2026-04-21 19:08 54.13477 11.02206 32098 ft 392 kts 49°
2026-04-21 19:08 54.15320 11.05623 31838 ft 391 kts 50°
2026-04-21 19:08 54.17134 11.09002 31583 ft 390 kts 50°
2026-04-21 19:09 54.18970 11.12421 31328 ft 389 kts 50°
2026-04-21 19:09 54.20801 11.15826 31073 ft 389 kts 50°
2026-04-21 19:09 54.22628 11.19227 30823 ft 388 kts 50°
2026-04-21 19:09 54.24449 11.22628 30578 ft 387 kts 50°
2026-04-21 19:10 54.26267 11.26037 30313 ft 387 kts 50°
2026-04-21 19:10 54.28078 11.29439 30021 ft 387 kts 50°
2026-04-21 19:10 54.29891 11.32847 29733 ft 388 kts 50°
2026-04-21 19:10 54.31713 11.36275 29444 ft 389 kts 50°
2026-04-21 19:11 54.33535 11.39708 29166 ft 390 kts 50°
2026-04-21 19:11 54.35359 11.43150 28891 ft 391 kts 50°
2026-04-21 19:11 54.37192 11.46612 28607 ft 392 kts 50°
2026-04-21 19:11 54.39028 11.50075 28330 ft 393 kts 50°
2026-04-21 19:12 54.40247 11.52363 28149 ft 394 kts 49°
2026-04-21 19:12 54.43168 11.56236 27394 ft 399 kts 38°
2026-04-21 19:12 54.45467 11.58805 27149 ft 390 kts 36°
2026-04-21 19:12 54.47758 11.61203 26975 ft 379 kts 35°
2026-04-21 19:13 54.50021 11.63536 26812 ft 383 kts 35°
2026-04-21 19:13 54.52292 11.65938 26651 ft 393 kts 36°
2026-04-21 19:13 54.54611 11.68445 26475 ft 392 kts 36°
2026-04-21 19:13 54.56898 11.70949 26286 ft 388 kts 36°
2026-04-21 19:14 54.59170 11.73474 26052 ft 386 kts 37°
2026-04-21 19:14 54.61419 11.75990 25826 ft 384 kts 37°
2026-04-21 19:14 54.63664 11.78501 25595 ft 383 kts 37°
2026-04-21 19:14 54.65900 11.80992 25376 ft 382 kts 36°
2026-04-21 19:15 54.68135 11.83479 25156 ft 381 kts 36°
2026-04-21 19:15 54.70357 11.85957 24928 ft 380 kts 36°
2026-04-21 19:15 54.72571 11.88432 24713 ft 378 kts 37°
2026-04-21 19:15 54.74753 11.90877 24510 ft 377 kts 37°
2026-04-21 19:16 54.76960 11.93353 24231 ft 377 kts 37°
2026-04-21 19:16 54.79157 11.95820 23947 ft 374 kts 37°
2026-04-21 19:16 54.81335 11.98267 23605 ft 372 kts 36°
2026-04-21 19:16 54.82768 11.99880 23382 ft 371 kts 36°
2026-04-21 19:17 54.87793 12.05548 22617 ft 369 kts 36°
2026-04-21 19:17 54.89946 12.07981 22293 ft 368 kts 36°
2026-04-21 19:17 54.91367 12.09589 22067 ft 367 kts 36°
2026-04-21 19:18 54.93510 12.12015 21761 ft 366 kts 36°
2026-04-21 19:18 54.95642 12.14432 21438 ft 365 kts 36°
2026-04-21 19:18 54.97769 12.16847 21129 ft 365 kts 36°
2026-04-21 19:18 54.99900 12.19270 20822 ft 364 kts 36°
2026-04-21 19:19 55.02015 12.21678 20515 ft 363 kts 36°
2026-04-21 19:19 55.04129 12.24087 20210 ft 362 kts 36°
2026-04-21 19:19 55.06232 12.26486 19880 ft 361 kts 36°
2026-04-21 19:19 55.08311 12.28863 19453 ft 362 kts 36°
2026-04-21 19:20 55.10421 12.31278 18976 ft 362 kts 35°
2026-04-21 19:20 55.12527 12.33690 18443 ft 362 kts 35°
2026-04-21 19:20 55.14642 12.36116 17864 ft 363 kts 35°
2026-04-21 19:20 55.16753 12.38541 17304 ft 362 kts 35°
2026-04-21 19:21 55.18855 12.40956 16752 ft 360 kts 35°
2026-04-21 19:21 55.20949 12.43367 16204 ft 358 kts 35°
2026-04-21 19:21 55.23025 12.45761 15672 ft 356 kts 35°
2026-04-21 19:21 55.25095 12.48150 15146 ft 354 kts 35°
2026-04-21 19:22 55.27151 12.50528 14613 ft 352 kts 35°
2026-04-21 19:22 55.29183 12.52880 13869 ft 356 kts 35°
2026-04-21 19:22 55.31261 12.55290 13108 ft 358 kts 35°
2026-04-21 19:22 55.33350 12.57714 12365 ft 360 kts 35°
2026-04-21 19:23 55.35435 12.60135 11736 ft 358 kts 35°
2026-04-21 19:23 55.37514 12.62553 11113 ft 357 kts 34°
2026-04-21 19:23 55.39578 12.64955 10490 ft 355 kts 34°
2026-04-21 19:23 55.41605 12.67321 9860 ft 353 kts 34°
2026-04-21 19:24 55.43643 12.69700 9194 ft 350 kts 34°
2026-04-21 19:24 55.45674 12.72074 8544 ft 348 kts 34°
2026-04-21 19:24 55.47685 12.74428 7906 ft 345 kts 34°
2026-04-21 19:24 55.49660 12.76742 7374 ft 339 kts 34°
2026-04-21 19:25 55.51623 12.79045 6715 ft 337 kts 34°
2026-04-21 19:25 55.53549 12.81315 6062 ft 335 kts 34°
2026-04-21 19:25 55.55471 12.83606 5396 ft 332 kts 34°
2026-04-21 19:25 55.57366 12.85901 4717 ft 329 kts 34°
2026-04-21 19:26 55.59236 12.88204 4044 ft 325 kts 34°
2026-04-21 19:26 55.61076 12.90508 3430 ft 321 kts 34°
2026-04-21 19:26 55.62851 12.92764 3127 ft 307 kts 34°
2026-04-21 19:26 55.64536 12.94932 3017 ft 290 kts 34°
2026-04-21 19:27 55.66105 12.96944 3002 ft 272 kts 32°
2026-04-21 19:27 55.67786 12.98166 2992 ft 253 kts
2026-04-21 19:27 55.69483 12.98127 2991 ft 237 kts 347°
2026-04-21 19:27 55.70912 12.96936 2983 ft 220 kts 323°
2026-04-21 19:28 55.71885 12.94971 2992 ft 205 kts 306°
2026-04-21 19:28 55.72641 12.92945 2996 ft 194 kts 305°
2026-04-21 19:28 55.73162 12.90733 2838 ft 194 kts 291°
2026-04-21 19:28 55.73292 12.88397 2623 ft 187 kts 275°
2026-04-21 19:29 55.73282 12.86130 2437 ft 182 kts 269°
2026-04-21 19:29 55.72987 12.83977 2247 ft 179 kts 251°
2026-04-21 19:29 55.72340 12.82108 2062 ft 179 kts 233°
2026-04-21 19:29 55.71429 12.80610 2044 ft 179 kts 226°
2026-04-21 19:30 55.70518 12.79186 2026 ft 172 kts 226°
2026-04-21 19:30 55.69624 12.77787 1962 ft 172 kts 226°
2026-04-21 19:30 55.68736 12.76402 1722 ft 166 kts 225°
2026-04-21 19:30 55.67873 12.75057 1487 ft 163 kts 225°
2026-04-21 19:31 55.67028 12.73740 1281 ft 159 kts 226°
2026-04-21 19:31 55.66208 12.72462 1051 ft 155 kts 225°
2026-04-21 19:31 55.65414 12.71201 845 ft 151 kts 226°
2026-04-21 19:31 55.64646 12.69932 617 ft 148 kts 225°
2026-04-21 19:32 55.63857 12.68786 401 ft 146 kts 220°
2026-04-21 19:32 55.63094 12.67616 217 ft 143 kts 222°
2026-04-21 19:32 55.62362 12.66476 27 ft 139 kts 221°
2026-04-21 19:32 55.61702 12.65451 23 ft 112 kts 221°
2026-04-21 19:33 55.61359 12.64877 26 ft 88 kts 227°
2026-04-21 19:33 55.61202 12.64160 23 ft 24 kts 294°
2026-04-21 19:33 55.61305 12.64137 23 ft 12 kts 28°
2026-04-21 19:33 55.61379 12.64221 23 ft 13 kts 34°
2026-04-21 19:34 55.61456 12.64308 26 ft 13 kts 33°
2026-04-21 19:34 55.61536 12.64401 24 ft 14 kts 33°
2026-04-21 19:34 55.61620 12.64499 25 ft 15 kts 33°
2026-04-21 19:34 55.61710 12.64601 23 ft 16 kts 33°
2026-04-21 19:35 55.61802 12.64708 23 ft 16 kts 33°
2026-04-21 19:35 55.61961 12.64891 25 ft 13 kts 34°
2026-04-21 19:35 55.62041 12.64981 24 ft 14 kts 33°
2026-04-21 19:36 55.62111 12.65065 25 ft 5 kts 33°
2026-04-21 19:36 55.62136 12.65094 23 ft 0 kts 33°
2026-04-21 19:38 55.62139 12.65097 25 ft 1 kts 33°
2026-04-21 19:38 55.62163 12.65126 23 ft 6 kts 34°
2026-04-21 19:38 55.62193 12.65158 24 ft 10 kts 30°
2026-04-21 19:38 55.62318 12.65201 26 ft 16 kts
2026-04-21 19:39 55.62427 12.65197 23 ft 16 kts 355°
2026-04-21 19:39 55.62536 12.65179 23 ft 16 kts 359°
2026-04-21 19:39 55.62629 12.65191 23 ft 9 kts 22°
2026-04-21 19:39 55.62672 12.65230 24 ft 6 kts 19°
2026-04-21 19:40 55.62715 12.65245 23 ft 7 kts
2026-04-21 19:40 55.62729 12.65248 23 ft 0 kts